CW8539 Weather Reports


Display with metric or nautical units.
time (UTC)temp
F
wind
direction
speed
MPH
gust
MPH
rain 1hr
in
rain 24hr
in
rain mn
in
humidity
%
barometer
mb
20260505153003 56 311 0.0 3.0 0.00 0.00 0.00 78 1016.4
20260505151503 56 285 0.0 3.0 0.00 0.00 0.00 79 1016.1
20260505124506 54 344 0.0 2.0 0.00 0.00 0.00 79 1015.3
20260505123006 54 294 0.0 0.0 0.00 0.00 0.00 78 1015.4
20260505121504 54 280 0.0 3.0 0.00 0.00 0.00 78 1015.5
20260505120008 54 327 1.0 3.0 0.00 0.00 0.00 78 1015.4
20260505114508 54 352 0.0 2.0 0.00 0.00 0.00 78 1015.2
20260505113006 54 309 0.0 3.0 0.00 0.00 0.00 79 1015.3
20260505111507 54 277 0.0 4.0 0.00 0.00 0.00 79 1015.3
20260505101513 55 300 0.0 5.0 0.00 0.00 0.00 80 1015.1
20260505100012 55 26 0.0 3.0 0.00 0.00 0.00 80 1015.4
20260505094519 55 347 0.0 3.0 0.00 0.00 0.00 81 1015.4
20260505093012 55 300 0.0 3.0 0.00 0.00 0.00 81 1015.4
20260505091513 55 305 0.0 2.0 0.00 0.00 0.00 81 1015.6
20260505090011 55 338 0.0 3.0 0.00 0.00 0.00 81 1015.8
20260505084512 55 49 0.0 6.0 0.00 0.00 0.00 81 1015.7
20260505083016 55 302 0.0 3.0 0.00 0.00 0.00 81 1015.8
20260505081512 55 294 0.0 0.0 0.00 0.00 0.00 81 1015.9
20260505080014 55 302 0.0 0.0 0.00 0.00 0.00 81 1016.0
20260505074510 55 302 0.0 0.0 0.00 0.00 0.00 81 1016.0
20260505073027 55 302 0.0 0.0 0.00 0.00 0.00 82 1015.9
20260505071515 55 294 0.0 2.0 0.00 0.00 0.00 82 1015.8
20260505070027 55 20 0.0 2.0 0.00 0.00 0.00 83 1015.9
20260505064508 55 116 0.0 0.0 0.00 0.00 0.00 83 1015.6
20260505063014 56 119 0.0 0.0 0.00 0.00 0.00 83 1015.5
20260505061523 56 89 0.0 0.0 0.00 0.00 0.00 83 1015.5
20260505060020 56 39 0.0 0.0 0.00 0.00 0.00 83 1015.6
20260505054520 56 61 0.0 2.0 0.00 0.00 0.00 82 1015.8
20260505053020 56 340 0.0 2.0 0.00 0.00 0.00 81 1015.9
20260505051520 56 19 0.0 3.0 0.00 0.00 0.00 81 1016.0
20260505041532 56 244 1.0 4.0 0.00 0.00 0.00 80 1015.6
20260505040025 57 196 0.0 4.0 0.00 0.00 0.00 80 1015.3
20260505034525 57 225 3.0 8.0 0.00 0.00 0.00 79 1015.2
20260505033023 57 259 1.0 7.0 0.00 0.00 0.00 79 1015.0
20260505031535 57 201 1.0 4.0 0.00 0.00 0.00 79 1015.1
20260505030024 57 230 3.0 9.0 0.00 0.00 0.00 79 1015.1
20260505024520 58 228 4.0 8.0 0.00 0.00 0.00 78 1015.1
20260505023023 59 211 3.0 9.0 0.00 0.00 0.00 77 1014.8
20260505021522 59 221 2.0 7.0 0.00 0.00 0.00 75 1014.6
20260505020022 60 224 4.0 14.0 0.00 0.00 0.00 73 1014.7
20260505014532 61 248 4.0 9.0 0.00 0.00 0.00 71 1014.7
20260505013022 61 205 4.0 8.0 0.00 0.00 0.00 69 1014.9
20260505011524 61 201 5.0 10.0 0.00 0.00 0.00 67 1015.0
20260505010007 62 188 4.0 13.0 0.00 0.00 0.00 68 1015.3
20260505004527 61 211 5.0 16.0 0.00 0.00 0.00 72 1015.5
20260505003018 62 205 4.0 13.0 0.00 0.00 0.00 70 1015.5
20260505001522 62 219 6.0 14.0 0.00 0.00 0.00 71 1015.5
20260505000030 62 213 5.0 12.0 0.00 0.00 0.00 75 1015.3
20260504234510 61 200 9.0 18.0 0.00 0.00 0.00 75 1015.4
20260504233026 61 234 8.0 16.0 0.00 0.00 0.00 75 1015.5
20260504231528 62 225 10.0 15.0 0.00 0.00 0.00 72 1015.6
20260504230024 62 212 8.0 16.0 0.00 0.00 0.00 74 1015.7
20260504224512 62 224 9.0 15.0 0.00 0.00 0.00 74 1015.6
20260504223025 61 254 7.0 14.0 0.00 0.00 0.00 77 1015.8
20260504221517 60 246 9.0 20.0 0.00 0.00 0.00 80 1015.9
20260504220027 61 221 11.0 20.0 0.00 0.00 0.00 76 1016.1
20260504214527 61 234 9.0 18.0 0.00 0.00 0.00 76 1016.1
20260504213021 61 234 10.0 17.0 0.00 0.00 0.00 76 1016.3
20260504211533 61 254 10.0 17.0 0.00 0.00 0.00 78 1016.5
20260504210027 60 218 9.0 15.0 0.00 0.00 0.00 78 1016.5
20260504204535 61 246 8.0 16.0 0.00 0.00 0.00 78 1016.5
20260504203028 61 270 8.0 17.0 0.00 0.00 0.00 76 1016.6
20260504201513 62 252 5.0 13.0 0.00 0.00 0.00 78 1016.6
20260504200018 62 242 6.0 11.0 0.00 0.00 0.00 78 1016.7
20260504194529 61 220 5.0 11.0 0.00 0.00 0.00 80 1016.6
20260504193026 59 212 8.0 13.0 0.00 0.00 0.00 78 1016.7
20260504191528 60 248 5.0 14.0 0.00 0.00 0.00 79 1016.8
20260504190016 59 206 9.0 13.0 0.00 0.00 0.00 79 1016.7
20260504184520 60 183 5.0 11.0 0.00 0.00 0.00 80 1016.8
20260504183007 60 207 6.0 10.0 0.00 0.00 0.00 78 1016.8
20260504181528 60 205 5.0 9.0 0.00 0.00 0.00 79 1016.7
20260504180027 60 217 4.0 9.0 0.00 0.00 0.00 79 1016.6
20260504174518 58 237 5.0 10.0 0.00 0.00 0.00 81 1016.4
20260504173020 58 215 5.0 9.0 0.00 0.00 0.00 80 1016.1
20260504171526 58 161 4.0 8.0 0.00 0.00 0.00 80 1016.1